QPF
0.00 0.00 0.00 0.00 0.00 0.01 0.01 0.01 0.02 0.01 0.02 0.02 0.02 0.01 0.01 0.00 0.00 0.00 0.00 0.00 0.00 0.02 0.03 0.05 0.06 0.05 0.02 0.01 0.00 0.00 0.00 0.00 0.00 0.00 0.00 0.00 0.00 0.00 0.00 0.00 0.00 0.00 0.00
0.00 0.00 0.00 0.00 0.01 0.01 0.01 0.01 0.02 0.01 0.02 0.02 0.01 0.01 0.00 0.00 0.00 0.00 0.00 0.00 0.01 0.03 0.05 0.06 0.05 0.02 0.01 0.00 0.00 0.00 0.00 0.00 0.00 0.00 0.00 0.00 0.00 0.00 0.00 0.00 0.00 0.00 0.00
0.00 0.00 0.00 0.01 0.01 0.01 0.01 0.01 0.01 0.01 0.01 0.01 0.01 0.00 0.00 0.00 0.00 0.00 0.00 0.00 0.01 0.03 0.05 0.04 0.02 0.01 0.00 0.00 0.00 0.00 0.00 0.00 0.00 0.00 0.00 0.00 0.00 0.00 0.00 0.00 0.00 0.00 0.00
0.00 0.00 0.00 0.00 0.00 0.01 0.01 0.01 0.01 0.01 0.01 0.01 0.01 0.00 0.00 0.00 0.00 0.00 0.00 0.00 0.01 0.02 0.01 0.01 0.00 0.00 0.00 0.00 0.00 0.00 0.00 0.00 0.00 0.00 0.00 0.00 0.00 0.00 0.00 0.00 0.00 0.00 0.00
0.00 0.00 0.00 0.00 0.00 0.00 0.00 0.00 0.01 0.01 0.01 0.01 0.01 0.00 0.00 0.00 0.00 0.00 0.00 0.00 0.00 0.00 0.00 0.00 0.00 0.00 0.00 0.00 0.00 0.00 0.00 0.00 0.00 0.00 0.00 0.00 0.00 0.01 0.01 0.01 0.01 0.01 0.01
0.00 0.00 0.00 0.00 0.00 0.00 0.00 0.00 0.01 0.01 0.01 0.01 0.01 0.00 0.00 0.00 0.00 0.00 0.00 0.00 0.00 0.00 0.00 0.00 0.00 0.00 0.00 0.00 0.00 0.00 0.00 0.00 0.00 0.00 0.00 0.00 0.00 0.01 0.01 0.01 0.02 0.02 0.03
0.00 0.00 0.00 0.00 0.00 0.00 0.00 0.00 0.00 0.01 0.01 0.01 0.00 0.00 0.00 0.00 0.00 0.00 0.00 0.00 0.00 0.00 0.00 0.00 0.00 0.00 0.00 0.00 0.00 0.00 0.00 0.00 0.00 0.00 0.00 0.00 0.00 0.01 0.01 0.01 0.02 0.02 0.03
0.00 0.00 0.00 0.00 0.00 0.00 0.00 0.00 0.00 0.01 0.01 0.01 0.00 0.00 0.00 0.00 0.00 0.00 0.00 0.00 0.00 0.00 0.00 0.00 0.00 0.00 0.00 0.00 0.00 0.00 0.00 0.00 0.00 0.00 0.00 0.00 0.00 0.00 0.01 0.01 0.01 0.02 0.02
0.00 0.00 0.00 0.00 0.00 0.00 0.00 0.00 0.00 0.00 0.01 0.01 0.01 0.00 0.00 0.00 0.00 0.00 0.00 0.00 0.00 0.00 0.00 0.00 0.00 0.00 0.00 0.00 0.00 0.00 0.00 0.00 0.00 0.00 0.00 0.00 0.00 0.01 0.02 0.02 0.03 0.02 0.01
0.00 0.00 0.00 0.00 0.00 0.00 0.00 0.00 0.00 0.00 0.00 0.00 0.00 0.00 0.00 0.00 0.00 0.00 0.00 0.00 0.00 0.00 0.01 0.00 0.00 0.00 0.00 0.00 0.00 0.00 0.00 0.00 0.00 0.00 0.00 0.00 0.01 0.03 0.03 0.03 0.02 0.01 0.00
0.00 0.00 0.00 0.00 0.00 0.00 0.00 0.00 0.00 0.00 0.00 0.00 0.00 0.00 0.00 0.00 0.00 0.00 0.00 0.00 0.00 0.01 0.01 0.01 0.00 0.00 0.00 0.00 0.00 0.00 0.00 0.00 0.00 0.00 0.00 0.01 0.03 0.03 0.02 0.01 0.00 0.00 0.00
0.00 0.00 0.00 0.00 0.00 0.00 0.00 0.00 0.00 0.00 0.00 0.00 0.00 0.00 0.00 0.00 0.00 0.00 0.00 0.00 0.00 0.00 0.01 0.00 0.00 0.00 0.00 0.00 0.00 0.00 0.00 0.00 0.00 0.00 0.01 0.02 0.02 0.01 0.00 0.00 0.00 0.00 0.00
0.00 0.00 0.00 0.00 0.00 0.00 0.00 0.00 0.00 0.00 0.00 0.00 0.00 0.00 0.00 0.00 0.00 0.00 0.00 0.00 0.00 0.00 0.00 0.00 0.00 0.00 0.00 0.00 0.00 0.00 0.00 0.00 0.00 0.00 0.00 0.00 0.00 0.00 0.00 0.00 0.00 0.00 0.00
0.00 0.00 0.00 0.00 0.00 0.00 0.00 0.00 0.00 0.00 0.00 0.00 0.00 0.00 0.00 0.00 0.00 0.00 0.00 0.00 0.00 0.00 0.00 0.00 0.00 0.00 0.00 0.00 0.00 0.00 0.00 0.00 0.00 0.00 0.00 0.00 0.00 0.00 0.00 0.00 0.00 0.00 0.00
0.00 0.00 0.00 0.00 0.00 0.00 0.00 0.00 0.00 0.00 0.00 0.00 0.00 0.00 0.00 0.00 0.00 0.00 0.00 0.00 0.00 0.00 0.00 0.00 0.00 0.00 0.00 0.00 0.00 0.00 0.00 0.00 0.00 0.00 0.00 0.00 0.00 0.00 0.00 0.00 0.00 0.00 0.00
0.00 0.00 0.00 0.00 0.00 0.00 0.00 0.01 0.01 0.00 0.00 0.00 0.00 0.00 0.00 0.00 0.00 0.00 0.00 0.00 0.00 0.00 0.00 0.00 0.00 0.00 0.00 0.00 0.00 0.00 0.00 0.00 0.00 0.00 0.00 0.00 0.00 0.00 0.00 0.00 0.00 0.00 0.00
0.00 0.00 0.00 0.00 0.00 0.00 0.00 0.01 0.01 0.01 0.00 0.00 0.00 0.00 0.00 0.00 0.00 0.00 0.00 0.00 0.00 0.00 0.00 0.00 0.00 0.00 0.00 0.00 0.00 0.00 0.00 0.00 0.00 0.00 0.00 0.00 0.00 0.00 0.00 0.00 0.00 0.00 0.00
0.00 0.00 0.00 0.00 0.00 0.00 0.00 0.00 0.01 0.01 0.01 0.01 0.01 0.00 0.00 0.00 0.00 0.00 0.00 0.00 0.00 0.00 0.00 0.00 0.00 0.00 0.00 0.00 0.00 0.00 0.00 0.00 0.00 0.00 0.00 0.00 0.00 0.00 0.00 0.00 0.00 0.00 0.00
0.00 0.00 0.00 0.00 0.00 0.00 0.00 0.00 0.01 0.01 0.01 0.01 0.01 0.00 0.01 0.01 0.01 0.00 0.00 0.00 0.00 0.00 0.00 0.00 0.00 0.00 0.00 0.00 0.00 0.00 0.00 0.00 0.00 0.00 0.00 0.00 0.00 0.00 0.00 0.00 0.00 0.00 0.00
0.00 0.00 0.00 0.00 0.00 0.00 0.00 0.00 0.01 0.01 0.01 0.00 0.00 0.00 0.01 0.02 0.02 0.02 0.01 0.00 0.00 0.00 0.00 0.00 0.00 0.00 0.00 0.00 0.00 0.00 0.00 0.00 0.00 0.00 0.00 0.00 0.00 0.00 0.00 0.00 0.00 0.00 0.00
0.00 0.00 0.00 0.00 0.00 0.00 0.00 0.00 0.01 0.01 0.00 0.00 0.00 0.01 0.02 0.03 0.04 0.03 0.02 0.01 0.00 0.00 0.00 0.00 0.00 0.00 0.00 0.00 0.00 0.00 0.00 0.00 0.00 0.00 0.00 0.00 0.00 0.00 0.00 0.00 0.00 0.00 0.00
0.00 0.00 0.00 0.00 0.00 0.00 0.00 0.00 0.00 0.00 0.00 0.00 0.01 0.01 0.01 0.02 0.04 0.04 0.03 0.02 0.02 0.01 0.00 0.00 0.00 0.00 0.00 0.00 0.00 0.00 0.00 0.00 0.00 0.00 0.00 0.00 0.00 0.00 0.00 0.00 0.00 0.00 0.00
0.00 0.00 0.00 0.00 0.00 0.00 0.00 0.00 0.00 0.01 0.01 0.01 0.01 0.00 0.00 0.01 0.02 0.03 0.05 0.04 0.04 0.03 0.01 0.01 0.00 0.00 0.00 0.00 0.00 0.00 0.00 0.00 0.00 0.00 0.00 0.00 0.00 0.00 0.00 0.00 0.00 0.00 0.00
0.00 0.00 0.00 0.00 0.00 0.00 0.00 0.00 0.00 0.00 0.00 0.00 0.00 0.00 0.01 0.02 0.03 0.05 0.07 0.08 0.08 0.06 0.04 0.03 0.02 0.01 0.00 0.00 0.00 0.00 0.00 0.00 0.00 0.00 0.00 0.00 0.00 0.00 0.00 0.00 0.00 0.00 0.00
0.00 0.00 0.00 0.00 0.00 0.00 0.00 0.00 0.00 0.00 0.00 0.00 0.00 0.01 0.01 0.02 0.03 0.05 0.06 0.08 0.09 0.08 0.07 0.07 0.05 0.03 0.02 0.01 0.00 0.00 0.00 0.00 0.00 0.00 0.00 0.00 0.00 0.00 0.00 0.00 0.00 0.00 0.00
0.00 0.00 0.00 0.00 0.00 0.00 0.00 0.00 0.00 0.00 0.00 0.00 0.00 0.00 0.01 0.01 0.02 0.03 0.05 0.06 0.08 0.09 0.11 0.11 0.11 0.08 0.06 0.03 0.01 0.01 0.00 0.00 0.00 0.00 0.00 0.00 0.00 0.00 0.00 0.00 0.00 0.00 0.00
MSLP
1013.45 1013.56 1013.79 1014.13 1014.50 1014.87 1015.20 1015.46 1015.64 1015.78 1015.91 1016.06 1016.26 1016.52 1016.82 1017.13 1017.40 1017.62 1017.74 1017.78 1017.77 1017.74 1017.73 1017.76 1017.84 1017.97 1018.12 1018.26 1018.36 1018.42 1018.42 1018.40 1018.36 1018.34 1018.35 1018.39 1018.45 1018.50 1018.52 1018.51 1018.45 1018.36 1018.25
1013.41 1013.56 1013.82 1014.18 1014.60 1015.00 1015.36 1015.65 1015.86 1016.02 1016.16 1016.32 1016.52 1016.78 1017.08 1017.38 1017.64 1017.84 1017.95 1017.98 1017.97 1017.94 1017.95 1018.01 1018.13 1018.29 1018.47 1018.63 1018.73 1018.77 1018.75 1018.68 1018.61 1018.56 1018.54 1018.57 1018.63 1018.69 1018.73 1018.73 1018.67 1018.58 1018.46
1013.35 1013.53 1013.84 1014.24 1014.68 1015.12 1015.51 1015.83 1016.08 1016.26 1016.43 1016.60 1016.82 1017.08 1017.37 1017.65 1017.89 1018.06 1018.15 1018.16 1018.14 1018.13 1018.15 1018.23 1018.38 1018.58 1018.78 1018.94 1019.03 1019.05 1018.99 1018.88 1018.77 1018.69 1018.66 1018.68 1018.74 1018.82 1018.88 1018.90 1018.86 1018.78 1018.67
1013.29 1013.53 1013.88 1014.31 1014.78 1015.24 1015.66 1016.01 1016.28 1016.50 1016.69 1016.89 1017.12 1017.38 1017.66 1017.92 1018.14 1018.29 1018.35 1018.35 1018.32 1018.31 1018.35 1018.46 1018.63 1018.84 1019.05 1019.21 1019.29 1019.27 1019.18 1019.04 1018.89 1018.78 1018.73 1018.75 1018.82 1018.91 1018.99 1019.04 1019.02 1018.96 1018.87
1013.30 1013.59 1013.97 1014.42 1014.91 1015.38 1015.82 1016.18 1016.47 1016.71 1016.92 1017.15 1017.39 1017.66 1017.94 1018.19 1018.39 1018.52 1018.57 1018.56 1018.53 1018.53 1018.58 1018.70 1018.89 1019.12 1019.32 1019.47 1019.53 1019.49 1019.36 1019.19 1019.01 1018.88 1018.82 1018.83 1018.91 1019.01 1019.10 1019.16 1019.17 1019.13 1019.06
1013.41 1013.74 1014.14 1014.60 1015.08 1015.55 1015.98 1016.34 1016.63 1016.88 1017.11 1017.35 1017.61 1017.89 1018.17 1018.43 1018.63 1018.76 1018.81 1018.80 1018.79 1018.80 1018.86 1019.00 1019.19 1019.41 1019.60 1019.73 1019.77 1019.70 1019.55 1019.36 1019.17 1019.03 1018.96 1018.97 1019.04 1019.14 1019.24 1019.31 1019.33 1019.30 1019.25
1013.65 1013.99 1014.39 1014.84 1015.30 1015.75 1016.15 1016.48 1016.77 1017.01 1017.24 1017.49 1017.76 1018.06 1018.35 1018.62 1018.84 1018.98 1019.05 1019.07 1019.08 1019.11 1019.18 1019.32 1019.51 1019.71 1019.89 1020.00 1020.01 1019.93 1019.77 1019.57 1019.37 1019.23 1019.16 1019.17 1019.24 1019.33 1019.42 1019.49 1019.51 1019.49 1019.45
1014.00 1014.33 1014.71 1015.12 1015.55 1015.95 1016.31 1016.62 1016.87 1017.10 1017.32 1017.57 1017.85 1018.15 1018.46 1018.75 1019.00 1019.17 1019.28 1019.33 1019.37 1019.42 1019.51 1019.66 1019.83 1020.01 1020.17 1020.25 1020.24 1020.14 1019.98 1019.79 1019.61 1019.48 1019.43 1019.44 1019.50 1019.59 1019.67 1019.72 1019.74 1019.72 1019.69
1014.41 1014.70 1015.04 1015.41 1015.78 1016.14 1016.46 1016.72 1016.95 1017.15 1017.36 1017.59 1017.86 1018.17 1018.50 1018.81 1019.08 1019.29 1019.44 1019.54 1019.62 1019.70 1019.80 1019.94 1020.10 1020.26 1020.38 1020.43 1020.41 1020.31 1020.16 1019.99 1019.84 1019.74 1019.71 1019.75 1019.82 1019.91 1019.98 1020.02 1020.03 1020.01 1019.99
1014.79 1015.03 1015.32 1015.64 1015.97 1016.28 1016.56 1016.79 1016.98 1017.16 1017.35 1017.57 1017.83 1018.13 1018.45 1018.77 1019.07 1019.31 1019.50 1019.64 1019.76 1019.87 1019.99 1020.13 1020.28 1020.41 1020.50 1020.53 1020.50 1020.40 1020.27 1020.13 1020.02 1019.97 1019.99 1020.05 1020.15 1020.25 1020.33 1020.38 1020.38 1020.37 1020.35
1015.07 1015.26 1015.49 1015.77 1016.06 1016.34 1016.59 1016.80 1016.98 1017.14 1017.31 1017.51 1017.74 1018.02 1018.33 1018.65 1018.95 1019.22 1019.44 1019.62 1019.77 1019.91 1020.05 1020.19 1020.33 1020.45 1020.52 1020.53 1020.49 1020.40 1020.30 1020.20 1020.14 1020.15 1020.22 1020.33 1020.47 1020.61 1020.71 1020.77 1020.79 1020.78 1020.76
1015.19 1015.32 1015.52 1015.76 1016.03 1016.30 1016.54 1016.75 1016.92 1017.08 1017.23 1017.41 1017.62 1017.87 1018.15 1018.44 1018.74 1019.01 1019.25 1019.45 1019.64 1019.81 1019.97 1020.13 1020.27 1020.37 1020.44 1020.45 1020.41 1020.34 1020.26 1020.21 1020.21 1020.27 1020.39 1020.57 1020.76 1020.93 1021.07 1021.16 1021.21 1021.21 1021.21
1015.12 1015.22 1015.38 1015.61 1015.86 1016.13 1016.39 1016.61 1016.80 1016.95 1017.10 1017.26 1017.45 1017.66 1017.91 1018.17 1018.44 1018.71 1018.95 1019.18 1019.39 1019.59 1019.78 1019.96 1020.11 1020.23 1020.30 1020.33 1020.31 1020.26 1020.21 1020.20 1020.24 1020.35 1020.53 1020.75 1021.00 1021.22 1021.41 1021.54 1021.61 1021.64 1021.65
1014.87 1014.95 1015.09 1015.31 1015.57 1015.85 1016.13 1016.37 1016.58 1016.76 1016.91 1017.07 1017.23 1017.41 1017.63 1017.86 1018.10 1018.35 1018.59 1018.83 1019.07 1019.30 1019.52 1019.73 1019.92 1020.07 1020.17 1020.22 1020.23 1020.21 1020.20 1020.22 1020.30 1020.44 1020.66 1020.92 1021.20 1021.47 1021.70 1021.87 1021.98 1022.04 1022.06
1014.49 1014.56 1014.70 1014.91 1015.17 1015.47 1015.76 1016.04 1016.27 1016.47 1016.64 1016.80 1016.95 1017.12 1017.31 1017.52 1017.74 1017.97 1018.22 1018.47 1018.72 1018.99 1019.25 1019.51 1019.74 1019.94 1020.08 1020.18 1020.23 1020.25 1020.27 1020.32 1020.41 1020.57 1020.80 1021.08 1021.38 1021.68 1021.94 1022.15 1022.29 1022.37 1022.41
1014.05 1014.10 1014.24 1014.44 1014.70 1015.00 1015.31 1015.60 1015.86 1016.08 1016.28 1016.45 1016.61 1016.78 1016.95 1017.15 1017.36 1017.59 1017.84 1018.10 1018.38 1018.68 1018.99 1019.29 1019.59 1019.84 1020.06 1020.21 1020.32 1020.38 1020.44 1020.50 1020.61 1020.77 1020.98 1021.25 1021.55 1021.85 1022.13 1022.36 1022.52 1022.63 1022.68
1013.61 1013.66 1013.77 1013.96 1014.20 1014.49 1014.79 1015.08 1015.35 1015.60 1015.81 1016.00 1016.18 1016.37 1016.56 1016.76 1016.98 1017.21 1017.47 1017.75 1018.05 1018.38 1018.73 1019.09 1019.45 1019.77 1020.06 1020.29 1020.46 1020.58 1020.67 1020.75 1020.86 1021.00 1021.20 1021.44 1021.72 1022.00 1022.27 1022.51 1022.69 1022.82 1022.88
1013.25 1013.27 1013.35 1013.50 1013.71 1013.96 1014.23 1014.51 1014.77 1015.02 1015.25 1015.47 1015.67 1015.88 1016.09 1016.32 1016.55 1016.81 1017.08 1017.37 1017.70 1018.06 1018.45 1018.85 1019.27 1019.67 1020.02 1020.33 1020.57 1020.75 1020.89 1021.00 1021.11 1021.24 1021.40 1021.61 1021.85 1022.11 1022.37 1022.61 1022.80 1022.94 1023.03
1012.98 1012.97 1013.01 1013.10 1013.25 1013.44 1013.67 1013.90 1014.15 1014.39 1014.62 1014.85 1015.08 1015.32 1015.56 1015.81 1016.07 1016.35 1016.63 1016.95 1017.29 1017.67 1018.08 1018.53 1018.99 1019.45 1019.88 1020.26 1020.57 1020.82 1021.00 1021.14 1021.26 1021.39 1021.53 1021.71 1021.92 1022.16 1022.41 1022.65 1022.86 1023.02 1023.14
1012.83 1012.76 1012.74 1012.76 1012.84 1012.97 1013.13 1013.31 1013.51 1013.73 1013.95 1014.18 1014.42 1014.68 1014.95 1015.22 1015.51 1015.80 1016.10 1016.42 1016.77 1017.16 1017.59 1018.06 1018.55 1019.06 1019.54 1019.99 1020.37 1020.68 1020.92 1021.10 1021.24 1021.37 1021.51 1021.68 1021.88 1022.11 1022.36 1022.62 1022.85 1023.05 1023.21
1012.77 1012.64 1012.54 1012.49 1012.49 1012.54 1012.64 1012.76 1012.91 1013.08 1013.27 1013.48 1013.72 1013.98 1014.26 1014.55 1014.85 1015.15 1015.46 1015.79 1016.14 1016.52 1016.95 1017.43 1017.94 1018.47 1018.99 1019.48 1019.91 1020.28 1020.57 1020.79 1020.97 1021.13 1021.29 1021.47 1021.69 1021.94 1022.22 1022.51 1022.79 1023.04 1023.25
1012.76 1012.56 1012.39 1012.28 1012.21 1012.19 1012.21 1012.26 1012.35 1012.47 1012.61 1012.79 1013.01 1013.25 1013.52 1013.81 1014.11 1014.41 1014.72 1015.04 1015.38 1015.76 1016.18 1016.65 1017.16 1017.69 1018.23 1018.74 1019.21 1019.61 1019.94 1020.21 1020.44 1020.63 1020.84 1021.06 1021.33 1021.63 1021.96 1022.31 1022.66 1022.97 1023.25
1012.78 1012.51 1012.28 1012.10 1011.97 1011.89 1011.84 1011.84 1011.86 1011.92 1012.01 1012.14 1012.31 1012.52 1012.76 1013.03 1013.32 1013.61 1013.91 1014.23 1014.56 1014.93 1015.33 1015.79 1016.28 1016.80 1017.33 1017.84 1018.31 1018.73 1019.09 1019.40 1019.66 1019.92 1020.18 1020.47 1020.80 1021.18 1021.59 1022.03 1022.45 1022.85 1023.19
1012.78 1012.46 1012.18 1011.95 1011.78 1011.64 1011.55 1011.48 1011.44 1011.43 1011.46 1011.53 1011.64 1011.81 1012.01 1012.25 1012.51 1012.79 1013.09 1013.40 1013.73 1014.08 1014.48 1014.91 1015.39 1015.88 1016.38 1016.87 1017.33 1017.74 1018.11 1018.44 1018.75 1019.05 1019.38 1019.75 1020.18 1020.65 1021.16 1021.68 1022.20 1022.67 1023.09
1012.76 1012.40 1012.09 1011.83 1011.62 1011.45 1011.31 1011.19 1011.09 1011.01 1010.97 1010.98 1011.03 1011.14 1011.30 1011.50 1011.74 1012.01 1012.30 1012.60 1012.93 1013.29 1013.68 1014.10 1014.55 1015.02 1015.49 1015.95 1016.38 1016.77 1017.13 1017.47 1017.80 1018.16 1018.56 1019.01 1019.53 1020.10 1020.70 1021.32 1021.92 1022.47 1022.95
1012.74 1012.36 1012.03 1011.75 1011.51 1011.30 1011.11 1010.94 1010.78 1010.65 1010.54 1010.48 1010.47 1010.53 1010.64 1010.81 1011.03 1011.28 1011.57 1011.89 1012.23 1012.59 1012.99 1013.41 1013.85 1014.29 1014.73 1015.15 1015.55 1015.92 1016.26 1016.61 1016.97 1017.36 1017.82 1018.35 1018.95 1019.61 1020.30 1021.00 1021.66 1022.27 1022.79
Thickness
5770 5769 5762 5760 5757 5756 5754 5753 5751 5749 5747 5745 5743 5740 5738 5736 5734 5732 5731 5731 5731 5730 5729 5729 5727 5726 5724 5723 5722 5721 5720 5719 5718 5718 5717 5717 5716 5715 5714 5713 5714 5714 5711
5771 5766 5759 5756 5754 5753 5751 5750 5748 5746 5743 5741 5738 5736 5733 5731 5730 5728 5728 5727 5727 5726 5725 5723 5722 5721 5719 5718 5717 5716 5715 5714 5713 5713 5713 5712 5711 5710 5709 5708 5709 5709 5707
5766 5762 5756 5753 5751 5749 5748 5746 5744 5742 5739 5737 5734 5732 5729 5727 5726 5724 5724 5723 5722 5721 5720 5718 5717 5715 5714 5713 5712 5711 5710 5709 5709 5708 5710 5711 5708 5706 5705 5704 5704 5703 5703
5762 5759 5755 5750 5748 5746 5744 5742 5740 5738 5735 5733 5730 5728 5725 5723 5722 5721 5720 5718 5717 5715 5714 5712 5711 5710 5709 5708 5707 5706 5705 5705 5704 5705 5708 5707 5705 5702 5702 5701 5700 5699 5699
5757 5755 5751 5746 5744 5742 5740 5738 5736 5733 5731 5729 5726 5723 5721 5719 5718 5716 5715 5713 5711 5710 5708 5707 5705 5704 5703 5702 5702 5701 5701 5700 5700 5702 5702 5701 5700 5698 5698 5697 5697 5696 5695
5752 5750 5745 5741 5739 5737 5735 5733 5731 5729 5727 5725 5722 5719 5717 5715 5713 5711 5709 5707 5706 5704 5703 5702 5700 5699 5698 5697 5697 5696 5696 5696 5697 5698 5697 5696 5696 5694 5693 5693 5693 5692 5691
5747 5744 5740 5735 5733 5731 5730 5728 5726 5725 5723 5720 5718 5715 5713 5711 5709 5706 5704 5702 5701 5700 5698 5697 5695 5694 5693 5692 5692 5691 5691 5691 5694 5693 5692 5691 5690 5689 5688 5688 5687 5686 5686
5741 5738 5734 5729 5727 5725 5724 5722 5721 5720 5718 5716 5713 5711 5709 5706 5704 5701 5699 5697 5696 5695 5694 5692 5691 5689 5688 5688 5687 5686 5686 5686 5687 5687 5686 5686 5683 5683 5683 5682 5681 5680 5679
5735 5732 5729 5725 5722 5719 5718 5717 5715 5714 5713 5711 5708 5706 5704 5702 5699 5697 5695 5693 5692 5690 5689 5687 5686 5684 5683 5683 5682 5681 5681 5681 5684 5682 5681 5680 5678 5678 5677 5675 5674 5673 5671
5728 5727 5725 5722 5720 5717 5714 5711 5710 5708 5707 5705 5703 5701 5699 5697 5695 5692 5691 5689 5687 5686 5685 5683 5681 5680 5679 5678 5677 5676 5676 5676 5678 5676 5676 5675 5672 5671 5669 5667 5666 5664 5663
5719 5720 5720 5718 5716 5714 5711 5707 5704 5703 5701 5699 5698 5696 5694 5693 5692 5689 5687 5685 5683 5682 5680 5679 5677 5675 5674 5673 5672 5671 5671 5673 5673 5673 5670 5667 5666 5664 5662 5659 5658 5656 5654
5711 5713 5715 5713 5711 5709 5707 5704 5702 5700 5697 5696 5695 5692 5691 5691 5689 5687 5683 5680 5679 5678 5676 5674 5673 5671 5670 5670 5668 5667 5669 5668 5668 5667 5663 5660 5659 5656 5654 5652 5650 5648 5646
5709 5709 5709 5708 5706 5705 5703 5702 5700 5698 5695 5694 5693 5691 5689 5687 5685 5683 5680 5677 5675 5673 5673 5669 5668 5668 5667 5666 5665 5665 5664 5663 5663 5661 5657 5654 5652 5649 5647 5644 5642 5641 5639
5706 5706 5706 5704 5703 5701 5700 5699 5697 5695 5693 5691 5689 5688 5687 5685 5683 5681 5679 5677 5674 5672 5670 5668 5666 5664 5663 5661 5661 5660 5658 5658 5657 5655 5650 5647 5645 5643 5640 5637 5635 5633 5631
5704 5704 5703 5702 5700 5698 5696 5695 5694 5693 5691 5689 5687 5685 5684 5682 5680 5679 5677 5674 5672 5669 5666 5664 5663 5661 5659 5657 5656 5655 5654 5652 5650 5648 5643 5640 5638 5636 5633 5630 5628 5626 5624
5703 5703 5703 5701 5699 5696 5694 5693 5691 5690 5688 5687 5685 5683 5681 5680 5678 5676 5674 5671 5669 5666 5664 5661 5659 5656 5654 5652 5651 5649 5648 5646 5645 5642 5639 5634 5631 5629 5626 5623 5621 5619 5617
5702 5703 5702 5701 5698 5696 5694 5692 5689 5687 5686 5685 5683 5681 5679 5678 5676 5673 5671 5668 5666 5663 5659 5656 5654 5651 5648 5646 5645 5643 5642 5640 5638 5635 5632 5629 5625 5622 5619 5617 5614 5611 5609
5699 5700 5701 5699 5698 5696 5694 5692 5688 5686 5684 5683 5681 5680 5678 5676 5674 5671 5669 5666 5662 5659 5656 5653 5650 5646 5643 5641 5640 5637 5635 5632 5631 5629 5625 5623 5620 5617 5613 5610 5607 5604 5602
5695 5697 5696 5697 5696 5696 5693 5690 5687 5684 5681 5680 5678 5677 5676 5674 5672 5669 5667 5663 5659 5655 5652 5649 5646 5643 5640 5636 5634 5631 5630 5627 5625 5622 5620 5617 5614 5611 5608 5602 5600 5597 5594
5690 5692 5692 5693 5692 5692 5691 5688 5684 5681 5680 5677 5676 5675 5673 5671 5669 5666 5664 5660 5656 5652 5649 5645 5641 5637 5635 5631 5627 5624 5622 5621 5619 5617 5615 5611 5608 5605 5602 5597 5594 5590 5587
5682 5684 5686 5686 5688 5686 5686 5684 5681 5679 5678 5676 5675 5672 5669 5667 5664 5662 5661 5658 5654 5651 5647 5643 5638 5632 5628 5624 5620 5617 5615 5613 5613 5611 5609 5606 5603 5599 5596 5592 5589 5585 5582
5673 5676 5678 5680 5681 5681 5681 5682 5681 5680 5678 5676 5672 5668 5665 5663 5661 5659 5658 5656 5652 5648 5644 5640 5635 5630 5624 5620 5619 5614 5612 5609 5607 5606 5604 5601 5599 5594 5590 5586 5583 5579 5576
5662 5665 5667 5670 5672 5673 5674 5674 5674 5674 5672 5670 5668 5667 5664 5660 5656 5654 5652 5651 5648 5645 5643 5638 5632 5628 5623 5616 5618 5617 5615 5616 5610 5603 5599 5596 5593 5589 5585 5580 5576 5572 5569
5652 5654 5657 5660 5662 5664 5664 5665 5666 5666 5666 5668 5666 5664 5661 5656 5652 5649 5646 5644 5642 5639 5638 5635 5630 5627 5622 5614 5609 5609 5612 5615 5608 5601 5593 5589 5586 5583 5579 5574 5569 5564 5560
5642 5644 5647 5650 5652 5654 5655 5655 5656 5658 5661 5661 5660 5658 5655 5652 5648 5644 5641 5637 5635 5633 5632 5629 5625 5622 5620 5615 5609 5604 5600 5598 5601 5602 5596 5585 5578 5576 5572 5567 5562 5556 5551
5633 5635 5637 5640 5642 5644 5645 5646 5647 5648 5649 5650 5650 5649 5648 5646 5643 5639 5635 5631 5629 5627 5626 5624 5620 5616 5614 5612 5607 5603 5601 5597 5596 5595 5595 5585 5578 5571 5563 5558 5553 5547 5542